Theta_e
314 314 315 315 315 316 316 317 318 316 315 315 317 318 318 318 318 319 319 319 320 320 320 321 321 321 321 320 320 320 319 318 317 319 322 324 322 322 324 329 336 338 338 345 349 349 352 357 356 354 356 358 363 363 358 362 364 364 371 368 357 363 368 367 374 372 365 368 371 369 368 363 356 356 355 356 356 354 356 355 355 355 353 353 353 354 354 355
314 314 315 315 315 315 316 316 316 316 314 313 315 316 317 317 317 318 318 319 319 319 319 319 320 320 320 321 320 320 319 318 317 319 323 324 323 323 323 328 335 341 343 347 350 351 358 364 357 357 362 360 362 361 360 363 362 368 372 364 363 371 370 368 373 370 367 368 369 370 365 358 356 356 357 363 359 354 360 359 357 358 355 353 353 354 354 354
314 315 315 315 315 316 316 316 316 316 314 312 313 313 315 316 316 317 318 319 318 319 319 319 320 319 320 320 320 321 319 318 318 318 320 322 324 322 322 326 332 340 347 348 350 351 357 362 355 362 366 360 363 360 363 364 361 367 366 367 375 375 366 365 371 369 367 365 367 372 364 358 357 356 360 364 357 356 363 361 362 361 357 355 353 354 354 354
314 315 315 315 316 316 316 316 317 317 315 312 312 313 313 313 315 315 317 318 318 318 318 318 319 319 320 320 320 320 318 319 319 317 318 320 321 321 320 323 328 336 346 347 349 351 354 356 353 362 365 364 366 361 365 366 360 362 364 372 372 367 367 368 370 367 365 362 366 375 366 357 355 356 361 361 359 361 360 359 362 362 356 354 353 353 355 355
314 314 314 315 315 315 316 316 317 317 316 314 312 313 313 312 313 313 315 316 317 318 318 318 318 319 320 320 321 320 319 323 322 320 323 323 320 321 319 321 327 333 341 346 350 351 354 356 355 360 360 363 365 363 368 365 360 361 366 374 369 364 366 370 371 365 366 367 367 372 366 358 354 356 361 360 365 364 358 356 356 356 354 353 353 353 355 355
313 314 314 314 314 315 315 316 316 317 317 315 313 313 313 312 312 312 313 314 316 317 317 318 318 319 320 320 322 321 321 325 323 320 326 328 321 322 320 322 328 330 337 345 349 350 355 357 359 364 362 363 365 365 368 362 360 364 366 369 370 368 364 370 375 369 370 372 370 371 367 364 360 357 359 359 363 362 356 355 354 354 353 353 354 353 354 354
313 313 313 313 313 313 314 315 316 316 317 316 313 313 314 313 311 312 312 313 315 316 317 318 318 319 319 322 324 322 321 322 318 319 327 329 325 324 322 324 328 330 335 343 348 350 355 357 361 366 364 364 366 366 368 363 360 365 368 367 367 369 368 370 375 374 371 370 372 370 364 366 367 358 356 358 358 358 356 354 353 353 353 354 353 353 353 354
313 312 312 312 313 313 314 315 315 316 317 316 314 312 314 313 312 311 312 312 314 315 317 317 318 319 320 323 325 323 321 319 316 318 325 330 329 326 325 327 328 330 333 339 348 351 354 358 359 359 361 364 365 366 367 362 361 364 368 370 368 369 372 371 371 373 370 369 370 368 367 370 371 363 360 365 359 355 354 352 353 353 353 353 352 353 353 353
312 312 312 312 313 313 314 314 314 315 316 317 314 312 314 314 312 311 311 312 312 314 316 317 318 318 321 322 319 320 320 320 321 320 323 330 331 328 327 328 327 330 333 337 344 350 352 357 358 356 359 362 359 363 363 359 362 365 368 373 371 368 371 368 368 371 369 371 368 363 368 372 371 365 361 364 358 353 353 352 354 353 353 353 352 353 352 353
312 312 312 312 312 313 314 314 314 315 315 317 315 312 313 314 312 312 311 311 312 314 315 317 318 318 321 320 315 316 319 322 326 322 323 328 330 329 328 329 328 330 333 335 340 348 352 354 356 351 353 358 355 359 361 356 357 364 372 376 373 371 370 367 366 369 368 370 367 360 367 374 368 364 363 361 354 352 354 353 353 353 353 352 352 352 352 353
312 312 313 313 313 313 314 314 315 315 316 317 315 312 313 313 312 311 311 311 312 313 315 316 318 319 322 321 318 319 319 321 324 322 322 325 327 328 328 329 329 329 332 334 336 343 348 348 348 346 351 355 352 357 358 360 361 365 371 367 370 373 368 367 368 368 364 363 368 363 364 371 363 363 371 363 353 352 354 354 353 353 353 352 352 352 352 353
313 313 313 313 313 314 314 315 316 316 317 317 314 312 313 313 312 312 311 311 312 313 315 316 318 321 322 323 322 322 320 322 322 321 322 322 323 326 326 328 329 329 332 334 334 337 342 343 342 344 350 350 350 354 354 363 366 365 367 362 368 376 370 368 371 368 360 359 373 365 356 364 365 367 370 359 353 354 354 355 354 353 353 352 352 352 352 353
313 313 314 314 314 316 317 317 318 317 316 314 312 312 313 312 311 311 311 311 313 313 315 316 318 321 322 325 325 321 319 322 321 320 322 321 322 323 323 325 326 327 329 331 333 335 337 341 341 343 345 345 350 348 348 359 361 362 366 364 367 370 370 367 365 369 362 362 375 361 350 367 376 370 363 356 355 356 355 355 354 353 353 352 353 352 352 352
313 314 314 315 316 318 318 318 318 317 315 312 312 313 312 312 312 312 311 312 313 314 316 317 320 321 322 326 324 320 321 322 322 322 323 322 322 323 323 324 324 325 326 327 329 331 335 338 339 340 338 342 346 345 353 361 364 365 357 363 365 353 363 368 361 368 363 363 373 354 348 366 377 370 361 357 356 356 356 355 354 354 353 353 353 352 352 351
314 314 314 315 317 318 318 318 318 317 315 314 313 312 312 312 312 311 312 313 314 315 317 319 321 322 326 329 323 322 325 323 323 323 323 323 322 323 324 324 323 324 324 324 327 328 333 335 335 339 338 343 347 351 365 366 371 372 347 353 363 349 365 376 361 367 366 365 368 352 352 364 369 367 362 357 357 357 357 355 354 354 353 353 353 352 351 351
314 313 314 316 317 318 319 318 318 318 316 314 312 312 313 312 313 313 313 314 316 318 319 321 322 321 327 332 325 324 326 324 324 323 323 323 321 323 324 324 323 324 325 324 326 327 329 331 331 340 344 349 354 360 370 361 364 375 350 346 357 350 357 364 358 364 369 371 367 356 361 369 364 361 360 358 357 357 357 356 355 353 353 353 352 352 351 351
313 314 316 318 319 319 319 318 318 318 316 313 312 313 313 314 315 315 315 317 320 322 322 324 323 320 323 327 325 326 326 324 325 324 324 323 321 323 322 324 325 324 326 325 325 327 328 332 334 339 347 351 356 360 354 345 350 364 357 349 355 355 349 352 357 361 366 370 369 364 366 370 366 361 360 359 356 357 358 357 355 354 353 353 352 352 351 351
313 316 318 319 320 320 318 317 317 317 314 312 313 314 317 318 319 318 319 321 322 320 321 324 323 322 322 323 323 325 325 324 326 326 326 324 323 324 322 324 326 324 327 328 327 329 330 336 340 342 347 348 355 354 341 340 348 348 348 345 349 353 348 351 354 355 365 368 367 371 370 370 368 361 361 360 357 358 358 356 355 354 353 353 352 352 352 352
314 317 319 320 320 319 317 317 317 316 313 313 316 317 319 322 321 322 321 322 323 318 318 325 325 322 323 324 322 323 325 324 326 325 325 326 323 323 322 320 324 327 329 330 329 333 334 336 340 338 340 347 355 356 345 349 354 344 345 344 344 347 347 358 363 357 364 367 368 372 370 370 368 362 363 362 359 357 357 357 356 356 354 353 353 352 352 352
315 318 320 320 320 318 316 317 316 315 313 315 319 319 325 330 330 328 326 327 329 322 320 327 327 324 325 325 323 324 327 325 324 324 323 325 323 322 320 317 323 328 329 333 331 334 334 335 339 336 339 346 349 355 352 349 348 344 345 345 346 346 343 357 368 363 362 363 365 368 367 369 367 363 361 360 361 358 357 357 357 357 355 353 353 352 352 352
317 319 321 320 319 317 316 316 315 314 313 315 321 326 335 337 331 327 328 332 329 321 324 327 324 324 324 323 323 324 327 328 326 324 322 323 323 322 321 319 321 322 326 333 332 332 335 334 338 340 341 340 338 345 347 344 343 342 342 342 342 344 345 349 357 362 362 360 363 365 365 365 363 362 359 360 361 358 357 357 356 356 355 355 353 352 352 351
318 320 321 319 317 316 315 316 315 314 314 315 319 325 331 328 323 321 323 328 327 320 323 325 322 324 324 322 324 324 326 330 327 325 322 319 320 320 321 321 321 323 327 331 332 334 336 336 339 340 337 334 334 337 338 339 340 338 339 337 335 340 346 348 356 363 359 356 362 367 366 365 362 358 357 360 361 358 356 355 356 356 355 355 353 352 352 351
319 320 320 318 316 315 315 315 315 314 314 313 314 317 321 320 320 319 320 327 330 326 328 329 328 331 331 327 325 326 330 331 329 328 323 318 320 321 320 321 322 324 327 330 334 331 330 337 342 337 332 332 335 335 335 335 335 335 336 332 330 336 337 338 350 361 359 353 358 365 365 366 366 362 359 357 357 359 357 353 354 355 353 354 352 351 351 350
320 320 319 319 316 315 317 318 318 316 315 314 314 318 323 323 321 319 323 330 333 332 332 330 330 333 335 330 324 329 334 329 329 330 323 320 321 319 320 323 324 324 327 332 336 332 330 336 335 331 332 334 334 334 334 332 331 333 335 331 329 333 335 338 349 361 362 354 357 360 353 359 368 363 358 356 355 358 359 357 356 353 353 353 352 351 350 350
320 319 319 320 319 318 319 321 321 320 321 319 320 325 327 326 323 320 327 333 330 331 330 325 329 332 330 327 325 329 332 327 329 328 319 320 320 318 319 321 323 325 326 329 331 331 331 330 329 329 331 331 331 333 332 331 329 328 332 334 333 332 335 350 363 362 353 347 355 353 340 350 370 365 358 356 357 358 358 360 357 354 354 353 353 352 350 349
320 319 318 319 321 321 322 324 321 321 324 323 324 328 326 326 324 321 333 339 327 326 329 325 328 331 327 329 328 327 328 328 329 323 317 319 318 318 319 319 321 322 323 327 327 328 330 328 328 329 329 330 331 331 331 332 327 324 331 334 335 335 333 351 361 348 341 341 349 349 338 343 356 362 364 361 360 360 357 360 359 355 355 353 353 352 351 350
320 319 318 318 320 322 324 326 321 322 329 327 326 328 326 327 323 321 334 337 326 325 328 326 327 329 327 328 328 325 325 326 326 321 319 318 318 319 319 320 320 319 322 324 320 323 329 329 328 329 329 330 331 329 332 333 326 327 336 332 335 339 333 346 351 339 342 344 345 352 344 337 339 346 358 358 360 361 357 359 359 355 355 353 352 351 350 350
320 319 318 319 319 319 321 322 320 323 329 327 325 327 328 326 323 328 334 326 324 326 326 326 326 326 325 324 326 327 325 326 327 324 319 318 319 319 319 321 320 320 323 322 317 320 327 327 328 330 328 328 331 334 333 333 329 331 335 329 330 334 333 343 346 341 344 338 340 350 344 337 342 351 361 361 361 366 364 360 358 356 355 353 352 351 349 349
321 320 319 320 320 320 320 321 322 325 328 326 325 327 328 324 326 338 336 321 322 326 324 326 325 324 326 325 326 328 327 327 328 325 321 318 319 320 320 322 322 320 320 321 321 322 323 325 328 325 324 327 331 333 330 330 332 330 331 329 330 339 342 345 346 344 340 333 336 343 339 335 341 354 361 354 355 369 369 359 354 354 355 353 352 350 349 349
321 321 320 321 321 322 322 323 325 327 327 325 326 327 327 329 335 337 327 319 321 324 324 325 325 325 327 327 329 330 327 328 328 325 322 321 321 323 321 320 323 325 326 326 325 324 323 326 331 326 323 328 327 326 326 326 329 326 328 328 328 342 350 351 357 350 337 335 336 336 339 335 333 349 359 350 360 372 362 359 357 354 354 354 353 351 349 349
321 322 321 321 321 322 325 327 327 327 325 324 326 328 330 340 347 333 321 321 322 324 326 325 325 326 326 326 329 329 327 329 329 325 324 324 323 325 324 324 327 329 334 332 324 325 326 323 328 330 330 328 322 325 325 324 326 324 332 331 322 330 338 338 344 341 333 338 338 335 340 335 330 346 361 354 359 360 355 360 362 355 354 354 352 351 349 348
321 321 321 322 321 322 324 327 328 325 323 323 327 336 338 336 333 326 324 324 320 322 326 325 326 327 328 330 330 327 327 329 327 325 326 326 326 325 324 328 329 324 326 327 321 324 328 325 325 328 332 327 322 329 328 326 330 326 333 334 320 321 326 326 331 335 335 336 336 337 338 334 334 342 347 347 346 347 350 354 357 356 353 352 352 351 349 348
321 321 322 322 322 322 323 324 325 323 323 324 329 341 343 331 323 323 327 325 319 322 326 324 327 329 332 335 332 329 329 328 328 325 324 327 330 327 324 328 327 321 321 322 318 320 325 329 328 327 332 327 325 331 325 326 332 325 327 327 321 320 319 323 333 332 328 327 329 338 337 331 333 336 341 347 341 340 343 344 349 354 351 351 352 350 349 349
322 322 322 322 323 324 324 324 324 324 324 326 332 338 333 325 324 326 327 327 325 326 325 323 329 333 333 333 330 329 330 329 328 327 328 334 335 330 329 329 326 324 324 321 319 319 319 323 327 327 329 328 329 331 324 327 329 326 328 324 322 325 319 322 331 326 323 327 324 326 331 329 328 333 346 351 347 348 345 344 348 352 354 352 352 351 349 348
322 323 322 323 324 326 327 326 326 325 323 326 337 339 327 322 325 326 327 331 329 327 325 325 332 336 333 334 333 329 329 328 328 330 333 335 332 329 330 329 328 329 325 320 321 322 317 320 328 329 328 328 330 330 328 328 325 326 329 321 321 327 321 321 328 327 324 325 325 324 329 337 338 341 348 349 360 366 357 353 352 353 358 355 353 354 350 348
323 324 324 325 326 328 328 328 327 326 325 332 336 331 326 326 326 326 328 329 325 325 329 327 331 333 329 332 337 333 329 328 331 335 332 329 330 331 330 329 330 329 326 325 327 325 320 323 331 332 332 332 329 329 330 326 326 330 325 321 325 327 323 320 323 332 325 317 327 329 325 333 338 339 346 356 375 381 368 361 355 355 361 356 353 353 349 349
324 325 326 327 329 328 330 330 327 325 329 339 338 332 332 329 324 327 332 327 322 328 334 328 325 326 324 326 330 332 332 328 330 334 329 327 330 330 332 334 333 330 328 327 327 326 322 325 333 331 331 335 329 328 334 329 329 332 324 326 332 327 328 324 318 329 328 319 329 331 325 332 332 332 347 361 371 378 376 368 358 360 364 357 354 352 350 350
325 327 329 328 328 328 331 330 326 329 336 343 347 344 338 328 322 325 327 323 322 329 333 327 323 323 324 324 325 329 332 328 329 334 330 328 329 328 332 336 334 333 330 327 329 330 326 325 334 335 329 334 335 330 332 333 332 334 328 331 335 326 325 324 317 321 323 320 330 333 331 333 331 334 346 349 352 364 376 373 362 362 362 356 355 354 352 354
325 332 333 328 328 329 331 329 327 337 344 341 344 342 330 326 327 325 323 322 324 328 328 324 323 325 326 325 324 327 329 327 330 333 328 327 328 328 330 331 332 333 331 331 332 333 331 325 329 337 331 330 338 334 328 330 335 338 333 332 337 331 324 321 320 320 320 325 333 334 329 329 336 348 349 342 348 358 373 377 366 359 358 356 357 356 354 356
326 337 336 327 329 330 330 330 333 347 348 339 344 341 325 324 327 324 324 323 322 324 324 324 326 326 325 325 324 323 328 331 331 331 330 328 328 329 329 327 330 332 332 335 334 332 336 329 325 338 338 327 330 333 327 329 333 334 332 329 332 334 329 324 322 320 322 330 334 331 327 333 347 358 355 347 346 351 363 372 366 357 355 357 357 356 355 355
327 338 334 327 330 331 331 333 335 348 349 337 338 336 328 328 326 324 327 325 323 323 322 325 328 325 325 326 323 322 328 334 333 332 332 330 330 331 329 325 326 330 333 338 337 333 335 333 327 332 334 327 331 333 328 330 334 332 331 330 330 331 329 327 329 330 327 326 331 329 324 334 351 350 351 355 349 349 356 361 364 359 357 360 359 357 358 356
332 337 330 328 331 327 330 336 337 344 347 334 329 330 334 335 327 323 327 326 324 323 322 324 325 324 324 324 322 323 328 332 332 333 332 332 334 333 329 326 324 327 333 336 336 337 341 340 332 330 332 330 331 334 330 331 334 333 332 333 333 333 330 328 332 338 332 325 330 330 323 336 355 350 350 358 355 354 355 360 368 365 360 363 362 358 359 356
342 336 325 329 331 327 330 336 337 339 337 328 325 327 329 330 325 323 325 326 325 324 325 324 323 323 323 321 323 326 326 325 328 332 332 332 334 332 330 327 325 331 338 337 337 340 342 339 331 335 349 344 335 339 340 337 335 333 334 337 334 333 333 332 332 335 335 331 329 325 322 335 354 353 352 357 359 362 362 362 371 373 368 368 367 365 361 357
346 334 329 331 328 327 332 332 333 335 332 327 326 325 324 323 324 324 324 325 326 325 325 324 322 324 323 323 325 327 325 322 324 329 332 330 331 333 332 326 326 334 337 338 343 337 333 337 335 337 346 344 340 345 343 341 342 339 339 340 336 336 340 341 337 332 332 332 328 323 326 338 347 347 347 349 352 363 366 361 363 370 372 371 370 369 365 361
337 332 337 336 325 325 329 330 335 334 328 327 325 324 325 323 321 323 324 324 325 324 326 325 323 324 326 326 327 327 327 325 324 328 330 329 329 331 331 325 325 334 338 343 349 338 330 339 339 336 337 335 337 343 341 340 342 339 339 339 337 342 349 350 343 334 330 334 333 326 329 339 342 343 347 348 346 352 362 365 362 363 365 365 366 369 369 368
334 336 340 337 330 329 327 328 336 333 328 334 331 324 325 324 321 322 323 324 323 324 326 325 324 327 327 328 329 328 328 329 329 329 329 329 330 330 329 327 326 334 341 339 343 347 344 342 344 348 346 341 341 348 348 342 338 333 334 337 339 345 352 354 350 343 340 340 340 337 338 341 342 346 350 351 347 347 354 365 369 365 361 359 360 365 370 370
341 341 338 336 334 336 333 328 332 332 330 335 331 323 324 325 323 324 323 324 323 323 326 326 327 328 327 328 330 327 328 332 331 328 326 329 332 329 327 326 326 335 341 332 336 353 349 337 341 349 348 346 347 347 344 339 336 333 333 337 344 349 353 354 351 349 346 338 337 344 346 342 343 350 352 349 349 348 348 358 366 364 359 356 356 361 367 368
338 337 334 333 330 333 333 326 328 333 335 337 331 324 326 327 326 326 325 325 325 325 327 328 327 326 325 327 330 327 329 334 331 329 330 331 332 330 329 329 326 330 334 327 334 351 345 334 336 338 339 348 348 342 341 338 335 338 342 345 347 349 352 352 349 350 346 338 337 346 352 348 347 352 351 348 348 348 346 351 359 360 358 356 355 358 366 369
340 340 335 334 332 334 335 329 330 333 337 346 342 328 326 328 327 325 324 327 330 327 328 330 328 326 327 330 333 330 330 330 328 331 334 331 328 328 329 332 329 328 328 325 331 343 339 338 344 337 334 346 348 341 340 338 338 344 347 346 345 347 350 350 348 349 350 348 348 351 356 356 352 350 349 346 346 346 347 353 358 361 361 359 359 362 368 369
339 338 338 343 342 341 341 337 336 334 335 344 342 328 326 328 326 324 323 326 330 327 327 330 328 327 328 331 333 331 328 326 325 329 331 329 328 330 331 331 329 329 330 325 330 335 329 333 350 346 335 342 349 343 338 341 347 349 344 342 343 345 350 351 349 350 353 355 353 351 355 358 352 348 347 345 344 345 352 360 364 363 362 363 365 367 368 366
327 324 331 345 343 337 338 335 333 337 336 337 336 331 331 330 326 326 325 324 327 326 326 328 328 329 331 332 334 333 328 326 325 327 327 325 327 331 331 328 325 326 329 328 330 336 331 333 348 346 335 339 346 341 339 344 347 347 344 343 344 345 348 350 350 350 353 355 353 352 354 355 350 347 346 345 344 345 350 359 364 364 364 366 367 366 363 359
327 325 327 340 339 332 335 334 333 336 332 329 331 331 331 329 326 330 330 327 326 326 325 326 328 332 334 333 333 331 326 325 325 325 324 323 324 325 324 325 325 323 328 329 325 330 336 335 338 337 332 339 346 343 342 344 340 342 345 343 343 345 345 347 350 350 349 351 353 354 353 350 348 347 347 347 346 345 347 352 356 359 362 364 364 362 359 355
Wind_Speed
9 9 9 9 9 9 9 9 8 8 8 9 9 9 8 8 9 10 10 10 10 11 11 11 12 13 14 15 17 19 20 20 18 13 8 16 16 8 4 3 12 14 12 13 15 14 7 4 3 2 2 2 1 1 1 1 2 3 2 2 1 2 3 4 4 4 1 1 3 2 2 4 3 1 2 4 5 6 5 2 3 5 6 9 15 24 28 26
10 10 10 10 10 10 10 9 9 8 8 9 9 9 9 9 9 10 11 11 10 11 11 11 12 12 13 15 16 18 20 19 16 13 17 23 17 9 5 5 12 15 14 15 17 15 8 3 4 3 3 2 1 1 1 1 2 2 2 1 2 4 3 4 4 3 1 1 3 2 1 3 2 3 3 3 5 7 6 2 4 7 8 11 18 25 27 25
11 11 11 11 11 10 10 10 10 9 8 9 10 10 10 9 10 10 11 11 11 11 11 11 11 11 13 14 15 17 16 12 9 10 21 24 20 17 11 8 13 17 15 14 18 17 9 7 9 5 3 2 1 2 2 1 1 1 2 1 3 4 2 2 4 5 4 2 1 3 1 1 2 3 3 5 7 6 5 4 4 6 8 13 16 22 25 24
12 11 11 11 11 11 11 10 10 10 9 9 10 10 10 10 9 10 11 10 10 11 11 11 11 11 12 13 15 14 10 6 4 7 13 16 18 19 17 13 14 17 16 13 15 14 6 8 9 4 3 1 2 2 1 2 2 1 3 2 4 2 1 3 5 4 3 2 1 2 2 1 2 3 4 8 8 3 5 7 8 10 14 16 16 18 21 21
12 12 12 12 12 12 12 11 11 10 9 9 9 10 10 10 9 10 10 10 10 10 10 11 10 10 11 13 12 9 5 4 3 4 3 8 12 16 17 15 15 18 18 13 13 10 5 8 6 2 2 1 2 2 1 3 3 1 2 4 4 2 1 3 4 3 1 1 1 2 1 1 0 2 4 10 8 4 6 7 8 13 16 18 18 19 20 19
13 13 13 13 13 13 13 12 12 11 11 10 10 11 11 10 9 9 9 9 9 9 9 10 10 9 10 11 8 4 1 0 6 6 3 5 11 13 13 15 16 19 18 13 11 8 5 5 4 1 1 1 1 2 3 1 2 1 2 2 2 3 2 1 3 4 3 3 1 2 2 1 0 0 3 9 7 3 3 7 8 11 16 19 20 19 18 17
13 14 14 14 14 14 14 13 13 13 12 11 10 11 11 10 9 9 9 8 8 8 8 9 9 8 9 8 4 3 2 5 9 6 5 4 11 11 13 17 17 20 19 13 10 7 4 4 3 2 2 2 2 4 2 1 2 3 2 3 1 2 2 2 3 4 4 4 3 2 2 1 3 2 2 6 4 1 4 9 11 12 16 18 17 15 16 16
14 14 14 14 14 14 14 14 14 14 13 12 10 11 11 9 9 9 8 7 7 7 7 7 8 7 7 4 1 4 1 7 9 6 5 2 11 12 15 18 17 20 20 15 10 7 5 5 4 2 1 3 2 3 2 3 2 2 3 3 1 1 1 1 1 2 3 3 2 1 3 3 4 2 1 3 2 5 8 11 12 13 15 14 14 14 14 14
15 15 15 15 15 15 15 15 15 14 14 13 10 11 11 9 8 8 7 7 6 5 6 6 6 5 5 3 2 2 4 6 8 6 3 3 9 13 17 17 17 20 18 14 10 8 6 4 5 4 2 3 2 2 3 3 2 4 5 2 2 1 2 2 0 1 1 2 0 0 4 4 2 2 1 2 3 8 10 12 13 14 14 13 12 13 13 13
15 15 15 15 15 16 16 15 15 15 14 13 10 10 10 8 7 7 6 7 6 5 5 5 5 4 2 2 4 0 4 4 5 3 2 4 8 13 16 14 17 20 14 10 10 10 7 5 5 4 2 2 2 2 3 3 2 3 4 3 4 1 2 2 1 1 1 2 2 2 4 4 2 1 2 1 5 10 11 12 13 14 13 13 12 11 12 13
15 15 15 16 16 16 15 15 15 14 13 12 10 9 9 7 6 6 6 6 5 5 5 3 3 3 1 2 4 4 5 3 6 6 2 3 6 10 13 13 15 19 13 8 11 15 10 6 4 1 1 1 1 1 3 3 2 3 5 3 3 4 2 1 1 2 0 1 3 4 3 4 1 0 4 4 7 10 12 12 12 13 12 12 12 11 10 12
16 16 16 16 15 15 15 14 13 12 12 10 8 7 7 6 5 6 5 4 4 4 4 3 2 1 1 1 5 9 7 2 2 6 3 1 2 6 9 11 12 16 15 7 10 17 13 7 3 1 2 1 1 1 3 1 4 3 4 2 4 6 2 3 2 2 2 1 2 3 2 4 2 3 4 6 9 9 11 12 11 11 10 10 11 10 9 11
16 16 15 15 14 14 13 13 12 11 10 8 7 6 5 5 5 5 4 3 4 4 3 1 1 0 1 1 6 9 9 8 8 7 4 1 2 3 6 9 10 12 14 10 9 11 11 11 6 4 3 1 2 1 1 3 3 1 3 2 2 6 4 5 1 2 3 2 1 2 2 5 5 5 4 8 10 10 10 11 10 9 9 9 10 9 9 12
16 16 15 14 13 13 12 12 11 10 9 7 6 5 4 4 4 4 3 3 3 3 1 1 1 1 1 5 7 6 7 10 12 11 6 4 3 3 6 8 9 10 12 14 13 7 6 11 8 3 3 2 3 1 3 4 3 1 1 2 2 2 4 6 1 4 4 1 1 4 2 6 6 6 4 8 10 12 11 10 10 9 8 8 8 9 9 11
16 15 14 13 13 12 12 12 11 9 8 6 4 3 4 4 4 3 3 3 2 1 1 2 1 1 2 6 8 5 5 7 10 11 8 7 6 5 7 9 9 9 9 13 13 6 3 6 5 2 3 1 2 3 2 3 3 2 1 2 3 1 4 7 3 6 5 1 2 4 2 6 6 6 5 8 9 11 11 10 11 10 10 9 8 9 8 9
15 15 14 13 12 12 11 11 10 8 6 3 2 3 3 3 2 2 3 2 2 3 3 3 2 2 1 4 4 3 4 4 7 10 10 11 10 8 8 7 6 5 6 8 8 7 5 3 2 2 1 1 4 4 3 3 3 3 1 2 2 1 3 5 3 4 4 1 1 1 2 3 3 3 3 8 9 9 10 10 11 10 11 10 8 8 8 8
15 14 13 11 11 11 11 10 8 6 3 2 3 3 2 2 2 2 3 3 4 5 4 2 2 2 2 4 3 3 3 3 4 6 10 13 14 12 6 2 2 0 2 4 3 4 4 2 1 0 2 2 2 4 3 3 3 3 1 2 3 3 2 3 4 3 3 3 1 2 2 5 4 1 2 7 9 8 9 10 11 10 10 9 9 8 8 9
14 13 11 11 10 10 10 8 5 3 2 3 4 5 5 5 4 4 6 7 6 5 3 1 2 2 2 4 2 2 5 6 5 5 8 12 14 12 5 1 1 3 4 2 0 1 1 0 1 1 3 3 2 4 1 4 2 2 3 2 3 2 3 4 4 3 5 3 3 3 4 9 9 3 3 6 8 8 9 10 10 10 10 10 9 9 9 10
14 12 11 10 10 9 9 5 3 1 4 6 7 9 8 7 6 5 6 5 3 2 1 2 1 1 2 3 2 6 10 9 6 4 5 8 12 9 2 1 2 4 3 2 2 2 1 1 2 0 2 1 2 4 5 6 5 4 4 2 3 4 4 5 4 5 7 4 4 6 6 8 8 6 5 6 8 9 8 8 8 8 9 9 9 9 10 11
13 11 10 10 9 8 6 3 0 2 5 9 11 9 6 4 4 2 1 1 4 3 1 2 4 2 4 4 4 10 10 4 2 2 6 9 10 7 1 2 4 4 1 2 2 2 2 1 2 4 5 5 5 6 6 5 3 4 3 3 4 4 6 4 3 6 6 4 5 8 8 8 8 7 6 6 8 10 10 8 8 8 9 9 10 10 11 12
11 10 9 9 8 7 4 1 2 4 6 11 11 6 2 2 2 2 2 3 6 6 3 3 4 5 8 7 6 7 4 2 2 2 8 10 11 8 1 2 4 1 3 2 2 2 2 2 5 6 8 7 6 6 5 5 4 5 3 5 5 4 7 5 2 4 5 4 5 5 6 9 10 9 5 5 8 11 12 11 10 11 10 9 11 12 12 11
10 9 8 8 7 4 2 2 4 5 6 10 8 2 2 2 3 0 1 2 6 5 5 5 3 6 10 10 9 2 2 2 3 1 7 9 7 5 1 3 4 3 3 2 1 4 3 3 8 8 6 3 3 5 4 5 5 5 3 3 5 3 4 5 2 1 3 3 4 3 5 9 10 8 6 7 8 9 11 13 12 12 12 10 11 11 11 10
8 8 7 7 4 3 3 4 5 4 7 7 4 2 4 2 3 1 3 1 5 2 3 3 3 4 6 7 6 5 3 1 1 3 6 9 3 4 4 3 5 3 1 2 3 1 2 5 8 6 3 1 4 3 3 3 4 4 3 2 6 4 1 4 4 2 1 2 1 2 3 6 6 6 7 9 9 6 9 13 12 11 13 13 13 12 12 12
7 6 6 5 3 3 5 5 5 3 4 4 4 2 8 5 4 4 2 2 3 4 3 4 3 4 3 2 5 8 3 3 3 4 7 11 3 2 5 4 4 3 3 4 6 4 6 8 4 1 2 3 4 5 3 3 4 5 5 5 7 8 4 4 2 2 2 2 1 3 3 6 4 4 7 5 6 6 7 9 11 10 11 12 12 12 12 13
5 5 3 3 3 3 4 4 4 3 1 4 2 8 11 5 4 2 1 2 2 3 2 2 1 4 4 2 5 6 1 2 5 5 7 11 7 3 2 2 4 4 6 4 5 3 8 7 3 1 3 3 3 6 4 4 4 5 6 10 11 12 7 4 3 3 4 4 3 3 2 5 5 4 7 2 3 7 6 8 12 11 10 10 11 11 11 12
4 4 1 2 2 4 3 3 3 4 1 1 3 12 11 2 3 4 2 4 2 3 2 1 1 2 4 2 3 3 3 3 6 5 7 10 9 5 1 1 1 4 5 4 3 2 5 2 4 4 4 3 5 6 3 6 3 4 5 8 9 9 6 5 6 3 0 4 4 1 3 4 6 4 6 3 4 8 6 8 12 11 10 11 11 11 11 11
3 2 1 0 2 3 2 2 2 3 1 1 7 12 8 2 5 4 3 5 2 2 1 2 1 2 4 3 4 4 2 4 2 1 4 9 6 4 2 3 0 2 3 3 0 2 4 1 2 4 3 4 5 4 5 7 5 4 7 3 4 7 6 7 7 5 4 3 3 3 3 1 5 5 5 2 4 7 6 8 10 10 11 12 12 12 12 12
2 1 0 1 3 3 1 1 1 1 1 4 9 11 6 3 5 3 4 4 2 2 0 2 1 3 2 2 4 2 1 2 2 2 2 5 5 3 1 5 4 3 1 5 2 5 2 2 3 5 3 3 5 5 7 8 5 7 9 6 5 6 5 6 7 4 1 1 3 4 2 1 5 6 4 1 3 6 8 11 12 12 13 13 13 12 13 13
1 0 0 0 1 3 3 3 3 2 1 6 11 10 2 6 3 3 5 3 2 1 0 1 1 2 2 2 1 3 2 2 1 3 3 3 2 3 2 5 4 2 1 4 4 6 2 4 6 5 3 5 7 7 8 9 7 7 6 7 3 2 2 2 5 3 3 1 4 5 5 2 5 6 4 1 2 6 9 10 11 13 13 12 13 12 12 11
2 2 1 1 1 2 3 5 5 3 3 8 12 7 4 6 4 5 3 0 1 2 1 1 1 1 2 2 3 4 1 2 1 2 3 2 1 4 2 3 5 3 2 2 3 6 4 3 3 3 4 6 6 5 6 9 8 3 5 5 3 6 4 4 3 3 4 1 6 7 8 5 3 6 4 3 5 7 7 7 7 9 11 11 11 11 12 11
3 3 3 3 3 3 2 3 4 3 5 10 10 3 4 2 4 6 1 2 2 3 3 3 4 3 4 3 2 4 2 3 3 3 1 1 3 5 3 1 3 3 3 4 4 5 6 3 2 2 4 3 2 4 1 1 0 1 2 2 2 2 3 4 4 4 3 4 7 4 7 5 2 5 5 6 7 5 5 6 7 10 12 12 11 11 12 11
3 4 5 5 6 7 6 4 5 4 8 10 7 3 4 3 4 3 1 2 2 3 2 2 4 4 5 4 3 4 3 3 4 3 2 2 3 2 1 1 1 2 3 3 3 5 5 3 3 4 3 1 2 3 5 5 5 4 2 4 2 2 2 2 2 1 2 6 5 4 6 3 5 8 9 10 11 8 7 8 8 10 12 12 12 11 10 10
4 5 5 7 9 11 10 9 9 8 9 7 4 4 5 5 2 1 2 2 1 2 1 1 3 4 4 4 4 5 3 2 3 3 2 2 4 2 2 1 3 1 1 3 1 4 4 5 6 5 3 1 4 4 2 3 4 3 1 2 2 1 1 1 3 1 3 5 2 3 3 1 4 6 9 11 12 10 8 8 9 9 11 12 12 11 10 11
4 5 6 9 11 12 11 11 11 8 7 5 4 4 6 4 1 2 2 2 2 2 2 1 3 5 5 3 3 3 3 3 3 4 3 3 4 3 3 3 2 2 2 1 1 0 1 4 5 2 2 3 2 3 4 3 2 3 2 3 2 3 2 2 2 2 4 4 2 1 1 2 2 4 6 8 8 7 6 7 8 7 8 9 8 9 10 10
4 6 8 11 11 9 7 8 8 5 2 4 5 5 5 2 2 1 1 3 2 2 3 3 3 5 5 3 3 2 1 2 4 5 4 4 3 1 2 3 3 2 3 1 2 1 1 3 6 4 3 2 2 2 3 5 0 2 1 3 1 4 4 1 2 4 2 2 2 1 2 4 4 6 6 4 6 6 5 5 3 3 4 7 7 8 9 9
4 6 7 9 8 5 2 3 5 5 4 5 6 5 2 3 2 2 2 2 0 0 2 4 4 4 4 4 4 5 3 2 4 4 3 3 1 1 2 2 3 2 2 2 2 1 1 3 6 5 5 3 2 3 0 4 1 2 2 1 3 4 5 2 1 1 3 1 3 1 3 5 3 5 6 4 5 6 6 5 1 3 4 7 8 8 9 9
5 7 7 7 6 3 2 2 5 8 5 5 6 2 2 2 3 3 2 0 1 2 4 2 2 2 1 2 3 6 5 3 4 3 2 2 2 3 4 3 3 1 2 2 1 1 1 3 5 3 4 6 2 1 3 1 4 3 1 3 2 1 3 3 1 3 3 1 4 1 2 5 3 3 6 7 7 6 6 5 1 4 6 7 6 7 8 9
7 7 6 5 5 2 3 4 7 8 5 5 5 2 1 0 1 2 1 1 1 3 5 2 0 1 1 1 2 5 4 3 3 3 2 1 1 2 3 3 3 4 2 1 1 1 2 2 6 2 3 7 4 4 3 4 2 4 2 2 2 2 0 2 1 1 1 2 4 4 3 3 2 4 5 6 6 6 6 5 2 3 5 5 4 6 7 7
6 4 3 4 3 2 4 6 6 4 6 5 3 1 1 0 2 2 1 1 2 4 4 2 0 2 2 2 0 3 3 2 1 2 2 1 1 2 4 2 4 7 6 3 2 1 1 1 4 5 3 4 5 4 0 5 5 2 2 2 2 2 3 1 1 2 1 2 2 4 4 2 5 5 4 6 7 6 6 4 4 4 3 4 4 5 6 7
4 2 1 5 2 6 6 4 2 5 5 3 2 1 0 0 2 4 4 2 3 2 2 1 1 2 1 2 1 2 2 2 1 1 1 1 1 1 4 3 3 6 6 5 3 1 1 1 3 6 4 3 2 0 2 3 3 2 3 3 2 2 1 1 0 1 1 2 2 1 3 5 6 4 4 7 7 5 5 3 3 4 2 4 4 5 6 7
3 2 3 6 3 9 5 3 4 4 3 2 1 1 1 2 1 6 7 5 4 2 2 3 3 2 1 2 2 1 1 3 3 2 2 2 2 0 2 2 2 5 3 5 3 1 1 1 1 3 4 2 3 4 3 4 4 3 1 1 3 2 3 3 2 2 0 2 3 2 2 6 6 2 3 6 7 6 5 3 1 4 3 4 4 5 6 6
3 2 4 4 6 8 3 4 2 2 3 2 1 1 1 2 3 4 6 5 5 3 3 3 3 2 1 0 0 2 3 2 3 3 1 1 1 2 2 5 4 3 1 2 2 2 1 2 1 2 3 3 7 7 4 4 3 3 2 2 2 4 5 4 1 3 2 2 1 2 1 5 5 3 4 6 5 6 4 3 4 3 4 4 5 5 6 6
2 2 3 1 7 3 6 4 2 4 3 1 0 1 3 3 2 3 4 5 3 2 4 3 2 2 2 0 1 3 3 1 1 2 1 2 1 3 4 8 7 1 2 1 3 2 1 3 2 3 4 4 5 6 5 3 2 2 0 2 2 4 5 5 4 2 1 3 1 1 2 5 5 4 4 5 5 6 5 3 1 2 2 2 4 5 5 5
2 2 2 1 5 1 4 4 2 4 2 2 4 4 5 3 3 3 3 3 2 2 3 2 2 2 2 2 3 2 2 1 1 2 1 1 3 4 3 8 7 3 2 0 1 1 1 1 2 2 4 5 5 5 6 5 3 1 3 4 2 5 5 3 2 2 1 4 2 3 3 5 4 5 7 8 9 10 8 6 4 2 2 1 3 4 4 4
1 1 2 3 1 1 3 4 4 5 3 4 5 3 4 3 3 2 3 3 2 3 3 1 2 2 2 3 4 3 3 2 1 2 1 1 3 3 4 8 6 2 2 3 1 0 0 1 2 2 1 1 1 2 3 3 3 2 3 5 2 5 6 3 2 3 2 3 1 3 4 5 6 10 14 14 13 12 9 7 6 5 3 2 3 4 3 3
2 1 2 5 5 4 3 1 3 5 4 4 4 3 3 3 2 2 3 3 2 3 3 2 2 3 4 4 4 3 4 2 1 1 2 3 3 2 5 8 5 3 6 7 4 2 2 1 2 5 5 4 5 5 4 2 2 3 5 6 4 4 6 5 4 1 2 3 3 3 3 6 10 13 16 16 13 11 10 7 6 6 6 5 4 3 3 3
2 2 0 1 3 4 4 4 4 3 3 4 3 1 2 2 2 2 3 2 1 3 3 2 3 3 3 3 3 2 4 4 3 2 2 3 3 4 6 5 3 6 8 7 5 3 4 1 0 4 4 5 6 5 5 2 2 4 4 6 5 3 7 7 2 2 1 1 4 4 1 4 7 10 14 14 13 11 10 8 6 4 5 5 5 3 3 3
2 1 1 1 1 2 2 3 3 4 4 4 3 2 2 3 2 1 1 2 2 2 3 2 4 3 2 3 4 1 3 4 4 3 2 3 3 4 7 4 3 5 5 5 4 3 5 1 2 3 3 6 4 4 6 4 3 3 1 5 7 3 7 6 1 4 2 2 5 6 3 1 4 10 13 12 11 11 11 9 4 2 4 5 6 5 4 4
2 2 1 1 2 2 1 2 2 5 6 4 3 3 2 3 2 0 1 3 4 3 3 2 3 3 1 3 5 2 1 1 2 4 2 2 3 3 4 4 4 4 5 5 4 2 3 1 2 1 2 6 5 4 5 5 3 1 4 6 7 3 6 8 4 6 6 5 4 5 4 2 2 9 11 10 10 9 8 5 3 4 5 5 5 5 4 4
2 1 1 2 4 2 2 3 3 4 5 4 3 2 1 2 3 2 2 3 1 3 3 3 3 5 2 3 4 1 2 4 3 5 4 1 3 2 1 3 3 4 6 4 3 2 1 1 1 3 2 5 5 4 6 5 1 2 5 9 10 6 4 8 6 5 6 4 5 6 3 1 3 8 10 8 8 8 6 4 4 4 4 4 4 4 5 5
2 1 1 4 3 4 4 3 3 4 4 3 2 1 2 2 0 1 2 2 2 1 1 1 3 3 1 4 3 3 5 4 6 8 7 4 4 3 2 2 2 3 5 2 1 3 2 1 2 4 3 5 5 5 7 5 3 3 6 10 11 7 5 7 5 5 6 5 7 6 5 4 6 9 10 8 8 10 8 5 4 4 4 4 4 5 5 6
5 1 1 4 3 4 3 2 4 4 2 2 0 1 1 1 1 3 3 3 3 3 1 1 2 1 2 4 4 5 6 6 8 9 6 5 6 5 3 4 2 1 2 1 1 1 2 2 1 2 1 5 4 5 5 4 4 2 2 5 6 6 5 5 5 5 8 5 5 4 4 6 9 10 11 12 12 10 8 6 5 4 4 4 4 4 4 4
Wind_Direction
332 330 327 325 323 320 315 310 303 298 300 300 300 299 298 298 296 299 297 299 303 305 310 312 318 323 324 325 326 325 326 325 318 320 282 259 268 269 288 199 164 159 164 161 153 145 134 134 155 156 97 61 45 16 360 46 71 52 72 87 152 187 196 199 185 182 163 294 274 304 144 140 123 108 96 82 84 114 115 38 62 51 52 106 126 137 144 147
331 329 327 326 323 320 316 311 306 299 296 299 300 296 296 296 296 298 296 299 302 304 309 312 319 322 323 325 324 325 326 322 321 308 262 252 263 258 240 193 173 169 169 167 165 154 142 172 162 122 62 29 354 35 360 295 93 90 111 86 222 203 211 204 171 167 166 243 268 294 170 157 164 145 129 104 122 133 113 51 73 76 82 109 126 138 145 150
329 328 326 325 323 321 317 311 307 300 295 296 297 296 294 292 295 297 296 298 301 305 310 314 321 322 323 324 324 327 326 325 325 282 253 249 254 253 241 209 185 180 182 182 181 173 168 179 161 129 50 2 337 73 61 301 177 143 113 64 255 221 232 229 180 179 198 221 318 322 332 166 213 148 115 127 142 160 155 144 127 123 132 131 137 143 148 153
326 325 324 323 322 319 316 312 307 301 295 291 294 296 292 290 291 294 295 297 301 306 311 316 320 322 322 323 325 326 330 339 295 250 247 248 247 246 242 223 194 186 192 190 184 182 165 143 146 123 55 360 330 54 130 231 195 142 128 178 243 222 256 234 200 193 207 206 328 329 345 343 206 147 117 128 139 203 208 192 174 158 152 146 149 151 151 156
324 322 321 320 319 317 314 311 306 300 293 288 289 290 291 289 286 292 294 296 301 305 313 316 318 324 322 323 327 323 350 28 286 269 257 242 231 232 234 218 194 189 190 184 178 170 132 119 121 59 51 341 339 26 254 214 154 136 206 206 216 174 257 245 189 179 174 144 329 321 251 269 160 130 142 147 159 222 215 203 180 156 155 155 155 155 156 159
321 320 319 317 316 314 312 309 305 300 292 286 284 287 290 285 281 289 291 293 300 305 313 314 318 326 323 325 333 328 45 48 295 312 310 233 212 215 215 201 189 188 185 175 168 155 127 110 96 100 91 345 210 225 265 218 126 119 268 253 209 192 226 251 162 176 153 122 248 247 245 287 76 256 173 170 184 233 194 161 155 153 154 155 153 156 162 165
321 319 317 315 313 311 310 308 304 301 295 288 283 286 289 284 280 284 287 292 296 305 312 311 318 326 329 332 332 13 89 251 287 315 322 230 195 198 189 185 185 186 182 168 159 158 142 129 147 157 119 324 214 220 254 63 87 119 257 275 205 203 231 247 177 172 153 154 232 268 318 290 192 203 165 188 198 158 138 133 136 144 147 151 154 159 164 168
319 317 315 314 311 310 309 306 303 300 296 290 283 285 288 283 279 280 284 286 289 299 305 306 318 329 338 337 298 358 316 253 287 309 319 205 177 180 175 177 184 187 183 176 168 158 150 154 188 164 133 269 196 198 186 84 25 171 215 247 170 227 291 314 224 151 155 195 266 331 301 260 211 203 168 225 202 128 127 126 132 139 145 154 161 163 163 167
318 316 314 312 310 308 306 303 301 297 294 290 282 283 286 282 277 280 280 281 287 288 296 305 315 332 340 350 89 355 273 266 301 295 286 159 158 166 173 177 186 188 182 184 177 155 167 181 201 195 208 242 179 200 179 111 276 212 190 185 133 303 342 52 192 124 103 230 224 59 287 293 260 250 289 282 147 134 128 129 137 142 149 159 165 167 166 167
318 315 313 311 308 306 303 301 299 295 293 288 281 280 283 282 276 278 275 277 283 278 291 299 311 340 346 6 86 142 283 338 347 310 201 171 156 164 178 185 190 189 181 179 179 173 181 183 194 198 194 242 198 197 169 150 235 186 148 130 104 342 310 93 209 295 30 253 192 170 275 295 313 275 270 318 125 134 128 134 144 147 156 162 167 171 169 172
316 315 312 310 308 306 303 301 298 294 292 287 280 278 280 282 274 273 269 271 277 274 286 291 318 346 120 78 121 205 288 42 60 47 79 182 175 183 191 198 197 193 185 169 192 203 198 182 185 149 114 243 228 196 207 181 134 115 117 102 27 352 299 152 241 268 18 244 186 158 266 294 6 260 229 174 138 139 135 142 152 153 159 163 166 171 172 177
317 315 312 310 308 306 305 302 298 294 293 288 280 278 278 275 266 267 263 266 272 266 276 293 332 342 100 81 195 235 271 222 52 23 23 137 201 216 214 219 215 203 196 181 210 216 206 189 179 237 231 263 327 262 249 167 90 92 100 101 327 2 333 245 219 195 142 199 198 150 305 293 211 232 223 158 141 142 139 148 157 158 161 164 167 171 176 181
318 316 313 311 309 308 308 304 300 296 294 291 282 278 268 262 259 259 257 251 252 260 281 297 293 290 69 257 235 256 264 246 278 310 301 292 237 240 245 240 235 222 213 214 234 233 218 208 199 229 233 261 283 237 108 49 74 88 71 94 319 5 325 268 202 125 141 174 211 141 279 272 241 251 208 155 145 140 143 156 161 163 165 166 170 174 182 183
318 317 315 314 313 313 311 307 304 300 298 294 282 267 249 246 245 243 242 228 227 248 275 110 204 111 100 255 266 296 277 257 270 276 266 250 220 234 250 242 239 236 229 232 244 264 250 221 210 245 255 211 233 131 64 17 37 103 51 44 5 355 291 291 255 149 150 184 96 124 233 267 267 270 203 164 154 147 152 165 165 168 172 172 175 177 185 185
321 320 319 318 317 316 314 311 307 302 300 290 265 241 235 235 236 232 216 214 213 201 149 109 177 124 57 277 277 307 290 268 265 259 252 244 225 224 238 238 242 243 239 243 244 254 277 224 199 234 265 236 107 93 37 355 17 45 9 321 344 219 272 304 270 171 162 268 81 127 219 270 273 267 201 168 161 156 157 168 171 173 176 179 182 181 187 190
325 323 321 319 318 317 316 313 309 305 297 272 228 214 214 207 201 197 192 195 159 130 114 96 119 121 88 279 289 320 291 272 268 259 248 240 230 224 230 236 245 247 240 244 242 239 251 240 200 178 186 58 90 104 45 12 342 359 51 262 276 201 285 315 290 208 177 127 42 163 221 266 287 294 198 170 170 166 160 170 176 177 180 181 186 188 189 193
326 324 323 322 321 319 318 317 314 308 281 201 177 169 148 148 153 168 161 124 114 115 100 98 85 76 251 268 301 324 299 275 270 263 248 235 227 224 225 252 259 181 231 238 222 220 228 216 225 313 68 62 95 99 42 330 308 331 6 258 247 205 250 302 296 258 177 138 198 205 231 250 263 333 156 177 179 174 170 178 181 180 184 185 185 191 192 195
329 328 327 325 323 321 322 322 320 307 208 148 143 134 114 113 106 108 134 124 107 92 75 76 58 51 263 277 293 294 303 295 278 271 252 226 215 216 213 4 74 76 31 348 332 175 202 210 83 24 9 21 68 100 138 243 225 266 274 281 289 278 240 255 278 228 165 174 201 171 236 256 260 252 172 193 188 185 188 184 186 186 185 187 187 192 195 198
331 330 328 325 324 324 324 320 315 261 158 134 127 124 113 104 94 96 118 121 114 102 118 228 169 122 231 253 286 316 309 299 282 256 218 195 194 198 199 12 64 76 54 14 329 326 133 38 41 79 294 302 194 164 193 218 207 244 263 233 263 292 262 228 252 236 172 167 213 196 224 250 259 251 207 201 189 193 205 190 189 193 188 191 191 195 196 198
331 331 328 326 325 325 326 319 242 167 154 141 135 127 120 102 71 41 86 186 215 182 143 201 189 243 286 270 324 337 324 314 298 188 165 171 167 151 116 2 46 49 81 164 263 298 118 176 251 220 226 227 215 208 219 233 247 290 308 280 257 267 277 244 237 251 175 153 234 212 226 250 256 254 219 191 185 196 207 199 196 197 195 197 195 197 198 202
332 331 328 328 326 330 342 13 141 154 156 154 152 137 154 155 70 328 289 258 246 224 229 235 208 266 277 273 309 347 358 354 346 116 151 162 148 136 274 7 80 351 277 192 222 341 66 206 237 224 221 226 218 214 239 267 281 286 281 294 287 240 264 264 212 242 182 179 265 215 222 251 249 250 228 179 186 200 204 201 200 199 200 202 200 202 201 206
332 329 329 334 333 344 29 106 132 153 162 163 170 180 280 206 135 66 349 302 279 238 225 259 278 279 272 272 275 271 57 360 336 29 151 150 139 156 215 71 130 226 296 47 45 357 9 247 248 242 222 226 234 202 218 255 263 271 259 293 294 249 265 296 354 357 185 197 287 217 209 252 253 245 228 194 196 205 203 202 201 197 199 203 204 205 203 206
331 331 335 343 357 38 87 115 122 145 160 166 190 234 321 324 163 353 28 81 291 280 192 232 232 255 278 281 239 158 99 170 235 301 178 149 137 172 146 123 159 193 341 104 154 152 300 249 245 241 187 184 275 239 205 265 274 259 241 261 280 260 233 291 321 16 193 197 279 190 215 268 272 256 238 211 202 208 204 205 205 200 201 203 203 202 201 202
330 336 341 356 35 91 100 98 92 103 153 189 217 303 341 322 243 290 357 126 296 303 207 198 194 213 255 293 166 143 115 192 190 273 183 147 122 144 155 162 142 165 229 192 161 174 247 246 226 164 142 169 260 289 274 275 288 263 232 221 254 260 223 223 245 76 4 313 147 92 1 296 277 253 253 228 195 211 206 202 209 209 209 209 207 203 201 200
332 340 349 18 59 115 102 79 63 58 133 201 238 344 351 328 237 223 99 80 352 307 250 198 229 222 208 106 153 163 101 225 216 225 180 153 144 130 173 165 132 209 227 172 149 200 258 247 170 229 261 165 211 275 251 207 266 292 246 214 230 254 240 185 158 93 20 307 238 111 40 294 301 271 255 252 186 213 201 194 207 210 210 211 213 210 204 201
337 344 5 37 87 106 91 82 40 22 5 190 359 352 354 18 139 133 103 51 44 311 332 261 311 216 201 129 168 159 61 290 244 203 174 167 157 122 134 180 94 219 202 153 157 220 262 251 134 193 244 204 218 261 226 172 196 286 252 209 212 239 235 182 164 142 246 266 269 157 155 256 314 300 257 246 212 222 211 203 210 206 204 206 210 210 205 202
341 352 13 256 156 129 102 113 33 20 97 360 360 353 351 110 127 120 65 47 22 298 336 291 333 164 205 186 160 126 84 288 301 111 173 179 171 82 127 211 239 218 179 115 95 245 230 261 109 177 201 219 233 261 223 168 152 243 256 227 193 220 222 192 176 180 212 218 334 343 143 222 299 281 277 262 218 244 240 224 221 210 205 206 205 205 204 202
329 346 8 248 193 210 234 180 277 256 118 359 355 349 347 140 140 101 77 71 321 294 156 287 242 165 226 161 157 159 230 298 36 322 288 165 175 58 108 219 190 212 177 116 215 266 207 196 220 190 176 213 223 227 201 163 166 245 264 277 251 233 225 191 174 174 200 146 323 301 150 149 272 275 317 27 203 258 246 228 223 214 208 204 201 201 202 202
278 223 149 32 208 235 257 262 254 235 328 355 354 348 31 133 120 51 77 93 321 330 148 306 175 194 346 63 256 298 317 360 86 270 345 115 173 65 145 208 148 161 281 129 209 260 237 214 202 170 173 214 229 231 181 166 210 252 283 295 315 23 34 115 141 131 77 91 254 241 178 169 271 277 311 29 229 251 241 231 221 214 211 204 199 196 196 199
210 206 225 251 233 230 279 281 248 225 322 349 350 349 116 117 64 56 63 156 280 296 280 353 326 293 51 73 320 326 338 291 308 339 17 85 6 35 114 180 103 112 301 11 253 256 282 270 185 164 209 211 237 255 177 177 220 272 331 312 15 43 37 53 73 88 77 282 253 219 180 168 285 277 252 210 224 225 222 234 224 211 212 208 202 193 188 192
216 224 236 240 238 235 273 288 223 214 330 343 346 3 119 64 51 90 88 252 260 314 355 351 328 9 51 72 326 333 352 312 337 29 40 51 27 28 40 8 44 47 360 346 304 293 329 337 201 254 258 213 276 308 265 168 230 77 2 350 46 6 16 34 6 44 97 255 269 213 159 150 240 265 250 234 242 232 208 227 221 206 207 208 203 194 186 185
222 231 238 242 248 242 235 241 239 274 327 338 349 46 97 24 33 96 291 317 333 310 344 331 325 8 28 45 19 332 345 336 348 59 114 64 54 54 43 191 190 13 343 289 302 331 327 283 271 314 296 211 73 7 335 357 40 75 78 58 52 301 360 25 316 25 189 249 261 164 135 138 234 250 260 258 263 259 229 226 222 207 204 204 199 192 184 181
229 239 245 249 254 252 247 253 264 287 318 337 10 55 80 70 57 236 286 347 317 276 268 330 341 10 31 42 10 329 2 9 346 40 81 70 66 36 332 166 150 107 284 239 312 353 325 307 333 350 326 350 94 86 332 323 6 8 174 108 120 168 70 291 275 302 255 267 271 174 164 279 275 263 250 246 259 265 249 238 227 210 202 201 196 187 181 182
237 245 256 260 262 265 263 261 264 282 325 8 56 62 67 79 191 240 292 273 260 322 13 18 341 5 32 45 347 335 33 25 3 36 31 38 56 21 337 356 47 118 146 173 224 143 343 306 319 329 319 355 70 152 165 176 296 306 191 137 124 139 139 249 242 222 255 281 319 305 218 203 229 258 234 231 267 286 279 259 235 214 197 187 181 178 181 184
252 263 273 273 276 281 270 258 254 259 351 50 70 68 79 130 237 228 242 256 283 341 349 14 42 34 11 345 334 351 62 30 18 41 39 45 70 21 337 331 342 74 121 166 235 216 81 255 264 270 274 352 347 264 155 127 181 285 105 78 77 155 159 211 198 185 213 303 302 253 239 214 215 263 267 274 301 307 311 291 238 196 173 156 160 174 178 181
291 303 298 284 286 291 262 241 215 180 133 83 69 63 110 184 200 178 204 230 51 19 346 2 37 55 354 324 334 344 4 42 35 43 31 34 68 357 343 277 297 36 115 176 221 282 24 271 277 316 320 307 321 296 284 106 136 310 52 155 233 165 140 126 292 320 66 335 273 240 260 288 320 303 301 335 335 332 352 351 62 138 150 158 169 177 175 177
330 325 310 294 300 284 209 196 161 146 118 82 87 102 213 195 172 196 225 51 120 98 88 49 7 51 355 330 325 330 354 22 29 53 34 5 7 345 338 285 272 15 157 179 218 209 122 277 289 348 327 291 308 360 302 113 128 114 122 214 237 50 97 104 17 347 35 269 279 312 258 293 338 310 308 339 344 334 342 343 357 144 161 176 176 172 174 176
336 325 306 306 316 271 196 166 150 134 90 67 86 110 177 104 146 216 281 15 76 65 81 107 290 97 151 127 316 323 358 12 358 41 71 16 18 10 358 311 293 343 352 117 83 18 103 302 289 289 278 292 345 48 323 321 90 129 171 180 110 91 16 16 56 295 334 277 289 312 297 276 228 237 285 306 314 314 315 320 296 189 175 178 167 160 165 163
340 341 328 335 347 163 160 157 149 102 66 72 90 120 159 202 325 321 314 46 86 69 80 131 100 74 99 112 268 316 8 43 2 55 85 52 55 48 35 355 296 322 344 58 93 314 69 84 279 279 282 306 352 48 349 306 330 13 33 31 48 135 157 145 160 170 227 256 271 312 326 287 235 222 232 259 278 286 278 281 272 237 190 164 163 160 163 163
2 48 320 336 43 142 154 152 84 54 69 107 156 183 131 113 323 338 354 51 81 63 88 136 63 70 47 20 11 313 14 56 54 82 68 43 104 6 14 20 306 307 339 34 68 345 26 83 259 292 330 360 351 30 183 238 290 351 13 29 33 23 73 80 253 161 153 191 205 289 314 278 255 217 209 262 290 286 255 265 292 273 211 163 170 166 166 171
39 92 314 339 109 149 144 64 44 62 90 98 109 98 33 88 32 342 351 36 72 71 103 113 93 95 106 16 16 323 8 36 28 59 55 26 86 65 4 35 281 279 344 24 31 29 22 112 223 305 339 341 263 257 239 235 218 164 128 168 127 101 76 64 336 309 76 172 189 168 271 272 263 235 254 283 304 295 258 198 196 267 219 170 175 172 168 171
75 122 315 343 143 152 81 47 15 61 92 78 99 112 48 83 57 351 346 21 55 58 61 80 83 78 80 62 14 12 43 35 6 36 55 357 131 194 317 349 303 244 129 34 296 259 139 103 80 286 271 261 268 272 278 275 247 138 140 228 152 104 102 109 233 283 327 310 230 139 229 266 270 297 315 309 316 312 286 175 154 220 226 179 164 163 164 169
115 167 328 45 161 148 50 61 360 30 70 42 168 47 29 64 51 8 10 25 37 51 41 37 42 57 53 51 96 48 44 49 8 22 351 326 287 237 305 345 339 338 89 33 297 285 95 80 33 302 292 307 302 300 318 345 25 84 253 264 147 123 136 153 172 189 282 287 252 149 252 271 281 313 339 332 350 12 356 351 125 187 223 176 145 144 156 166
170 201 347 88 193 261 55 108 96 68 64 21 57 35 10 50 52 25 36 22 12 73 65 22 6 47 47 48 78 60 20 88 68 360 345 318 290 264 308 345 350 17 51 248 236 331 353 64 66 22 341 341 350 340 333 346 19 79 271 278 165 124 119 130 106 79 250 252 174 157 231 254 270 331 3 3 12 22 8 352 352 303 255 140 107 109 128 143
61 212 317 355 344 51 77 146 140 110 93 58 64 31 11 52 27 15 73 38 15 89 97 14 13 57 46 39 53 28 10 87 103 345 5 314 289 282 326 336 340 355 312 284 241 35 53 133 114 103 106 273 285 286 271 289 319 303 285 301 358 76 80 96 81 82 218 279 17 161 234 281 312 350 359 359 7 4 345 346 352 334 330 6 51 68 77 112
72 72 317 347 16 48 51 91 106 105 120 103 71 20 44 73 312 328 82 67 27 66 67 20 25 56 46 43 50 13 354 21 68 30 12 316 289 274 310 319 317 306 321 339 4 77 108 86 118 147 166 187 202 227 237 244 298 296 305 318 336 59 76 82 75 99 224 313 324 218 229 313 328 350 353 346 352 346 326 335 349 340 345 353 9 60 81 86
93 77 65 338 7 25 24 17 43 84 131 124 103 14 26 50 324 346 40 74 98 82 69 25 23 52 54 54 74 25 338 352 9 20 349 296 274 283 300 303 311 321 332 346 356 62 92 21 145 154 195 224 211 239 281 296 260 264 293 321 328 49 76 72 41 296 273 8 288 267 321 332 321 347 349 337 338 333 318 323 329 328 347 350 343 5 69 68
89 123 180 153 77 60 46 11 31 72 73 76 98 86 34 48 65 36 334 12 42 71 90 27 3 41 104 111 109 77 345 4 357 337 310 292 301 328 325 315 313 330 354 1 349 70 106 218 224 166 260 277 264 282 301 294 256 252 334 347 336 28 89 91 17 305 297 194 249 288 324 292 321 350 344 332 332 323 303 299 307 339 7 7 351 347 19 35
74 96 305 32 93 137 166 341 29 68 58 48 59 55 52 67 62 302 299 23 8 8 79 92 309 315 34 114 116 111 41 60 334 301 258 284 318 345 338 317 304 341 24 14 344 75 117 252 248 145 307 303 301 308 314 301 268 309 36 12 350 3 93 91 58 312 284 238 252 293 290 240 346 353 337 324 324 315 293 295 351 33 24 21 5 338 343 360
58 93 317 42 60 42 3 9 41 64 44 36 55 42 59 80 42 352 14 58 20 338 43 112 251 287 311 88 93 93 212 177 211 256 228 252 308 267 245 264 272 342 7 2 331 358 49 294 296 75 23 308 306 344 347 327 301 83 43 21 8 360 52 71 52 322 301 293 307 324 330 293 349 345 329 321 334 336 324 333 19 32 27 29 6 328 335 351
24 209 145 89 56 359 354 7 46 73 39 18 62 46 11 31 18 80 42 43 112 96 43 162 233 269 337 37 29 296 264 212 215 240 231 224 251 230 211 235 236 335 344 345 325 343 28 346 345 56 51 289 302 360 352 337 360 50 40 20 6 357 27 63 55 339 327 316 314 345 17 335 324 331 327 335 356 349 333 340 17 21 15 26 6 339 348 350
10 305 52 97 88 4 360 5 29 69 67 335 359 74 21 323 255 130 98 13 29 62 59 167 149 122 31 355 315 281 282 267 254 259 239 213 235 235 237 264 254 240 264 247 305 289 113 88 333 58 62 274 296 347 348 2 9 350 18 18 359 349 5 66 82 1 343 337 330 357 6 319 317 330 338 346 352 344 328 333 359 4 9 28 23 355 341 326